Weather History for Marco Island Airport, FL

Change the Weather History Date:

Tuesday, January 21, 2014

  Actual Average (KAPF) Record (KAPF)
Temperature  
Mean Temperature 66 °F 64 °F  
Max Temperature 69 °F 75 °F 88 °F (1990)
Min Temperature 62 °F 54 °F 28 °F (1971)
Degree Days  
Heating Degree Days 0 3  
Month to date heating degree days 76  
Since 1 July heating degree days 154  
Cooling Degree Days 0 3  
Month to date cooling degree days 63  
Year to date cooling degree days 63  
Growing Degree Days 16 (Base 50)    
Moisture  
Dew Point 62 °F    
Average Humidity 87    
Maximum Humidity 94    
Minimum Humidity 73    
Precipitation  
Precipitation 0.22 in 0.07 in 1.19 in (1956)
Month to date precipitation 1.13  
Year to date precipitation 1.13  
Snow  
Snow 0.00 in - - ()
Month to date snowfall  
Since 1 July snowfall  
Snow Depth -    
Sea Level Pressure  
Sea Level Pressure 29.99 in    
Wind  
Wind Speed 7 mph (SW)    
Max Wind Speed 14 mph    
Max Gust Speed 17 mph    
Visibility 10 miles    
Events      
T = Trace of Precipitation, MM = Missing Value Source: NWS Daily Summary

Daily Weather History Graph

Daily Weather History Graph

Search for Another Location

Airport:

Trip Planner

Search our weather history database for the weather conditions in past years. The results will help you decide how hot, cold, wet, or windy it might be!

Date:

Astronomy

Jan. 21, 2014 Rise Set
Actual Time 7:14 AM EST 6:01 PM EST
Civil Twilight 6:50 AM EST 6:26 PM EST
Nautical Twilight 6:21 AM EST 6:54 PM EST
Astronomical Twilight 5:54 AM EST 7:22 PM EST
Moon 10:56 PM EST (1/21) 10:17 AM EST (1/21)
Length of Visible Light 11h 36m
Length of Day
10h 47m
Waning Gibbous, 75% of the Moon is Illuminated
Jan 21
Waning Gibbous
Jan 24
Last Quarter
Jan 30
New
Feb 6
First Quarter
Feb 14
Full

Hourly Weather History & Observations

Time (EST) Temp. Dew Point Humidity Pressure Visibility Wind Dir Wind Speed Gust Speed Precip Events Conditions
12:15 AM 62.6 °F 60.8 °F 94% 30.06 in 10.0 mi SSW 5.8 mph - N/A   Clear
12:35 AM 64.4 °F 60.8 °F 88% 30.06 in 10.0 mi SSW 5.8 mph - N/A   Clear
12:55 AM 64.4 °F 60.8 °F 88% 30.06 in 10.0 mi SSW 5.8 mph - N/A   Clear
1:15 AM 64.4 °F 60.8 °F 88% 30.05 in 10.0 mi SSW 6.9 mph - N/A   Partly Cloudy
1:35 AM 64.4 °F 60.8 °F 88% 30.04 in 10.0 mi SSW 6.9 mph - N/A   Scattered Clouds
1:55 AM 64.4 °F 60.8 °F 88% 30.04 in 10.0 mi SSW 8.1 mph - N/A   Partly Cloudy
2:15 AM 64.4 °F 62.6 °F 94% 30.03 in 10.0 mi SSW 5.8 mph - N/A   Mostly Cloudy
2:35 AM 64.4 °F 62.6 °F 94% 30.02 in 10.0 mi SSW 8.1 mph - N/A   Overcast
2:55 AM 64.4 °F 62.6 °F 94% 30.02 in 10.0 mi SSW 6.9 mph - N/A   Mostly Cloudy
3:15 AM 66.2 °F 62.6 °F 88% 30.02 in 10.0 mi SSW 6.9 mph - N/A   Mostly Cloudy
3:35 AM 66.2 °F 62.6 °F 88% 30.02 in 10.0 mi SW 8.1 mph - N/A   Overcast
3:55 AM 66.2 °F 62.6 °F 88% 30.02 in 10.0 mi SW 6.9 mph - N/A   Scattered Clouds
4:15 AM 66.2 °F 62.6 °F 88% 30.02 in 10.0 mi SW 9.2 mph - N/A   Scattered Clouds
4:35 AM 66.2 °F 62.6 °F 88% 30.01 in 10.0 mi SW 10.4 mph - N/A   Overcast
4:55 AM 66.2 °F 60.8 °F 83% 30.01 in 10.0 mi SW 8.1 mph - N/A   Overcast
5:15 AM 66.2 °F 60.8 °F 83% 30.02 in 10.0 mi SW 8.1 mph - N/A   Overcast
5:35 AM 66.2 °F 60.8 °F 83% 30.02 in 10.0 mi SW 5.8 mph - N/A   Overcast
5:55 AM 66.2 °F 62.6 °F 88% 30.02 in 10.0 mi SW 4.6 mph - N/A   Overcast
6:15 AM 66.2 °F 62.6 °F 88% 30.02 in 10.0 mi WSW 4.6 mph - N/A   Overcast
6:35 AM 66.2 °F 62.6 °F 88% 30.02 in 10.0 mi SW 3.5 mph - N/A   Overcast
6:55 AM 66.2 °F 62.6 °F 88% 30.02 in 10.0 mi NNW 5.8 mph - N/A   Mostly Cloudy
7:15 AM 66.2 °F 62.6 °F 88% 30.02 in 10.0 mi West 3.5 mph - N/A   Overcast
7:35 AM 64.4 °F 62.6 °F 94% 30.02 in 5.0 mi SW 6.9 mph - 0.02 in   Overcast
7:55 AM 64.4 °F 62.6 °F 94% 30.04 in 4.0 mi WSW 10.4 mph - 0.15 in   Overcast
8:15 AM 64.4 °F 62.6 °F 94% 30.03 in 10.0 mi SW 9.2 mph - 0.07 in   Overcast
8:35 AM 62.6 °F 60.8 °F 94% 30.04 in 10.0 mi SW 9.2 mph - 0.07 in   Overcast
8:55 AM 62.6 °F 60.8 °F 94% 30.03 in 10.0 mi WSW 3.5 mph - 0.07 in   Overcast
9:15 AM 64.4 °F 62.6 °F 94% 30.03 in 10.0 mi South 4.6 mph - N/A   Overcast
9:35 AM 66.2 °F 62.6 °F 88% 30.03 in 10.0 mi South 4.6 mph - N/A   Mostly Cloudy
9:55 AM 66.2 °F 62.6 °F 88% 30.03 in 10.0 mi South 8.1 mph - N/A   Partly Cloudy
10:15 AM 68.0 °F 62.6 °F 83% 30.04 in 10.0 mi South 9.2 mph - N/A   Clear
10:35 AM 69.8 °F 62.6 °F 78% 30.04 in 10.0 mi SSW 6.9 mph - N/A   Scattered Clouds
10:55 AM 68.0 °F 62.6 °F 83% 30.04 in 10.0 mi SSW 6.9 mph - N/A   Mostly Cloudy
11:15 AM 66.2 °F 62.6 °F 88% 30.03 in 10.0 mi SSW 6.9 mph - N/A   Overcast
11:35 AM 66.2 °F 62.6 °F 88% 30.02 in 10.0 mi South 5.8 mph - N/A   Mostly Cloudy
11:55 AM 66.2 °F 60.8 °F 83% 30.01 in 10.0 mi SW 5.8 mph - N/A   Mostly Cloudy
12:15 PM 69.8 °F 62.6 °F 78% 30.00 in 10.0 mi SW 3.5 mph - N/A   Scattered Clouds
12:35 PM 69.8 °F 60.8 °F 73% 30.00 in 10.0 mi SW 8.1 mph - N/A   Mostly Cloudy
12:55 PM 68.0 °F 60.8 °F 78% 29.99 in 10.0 mi SSW 10.4 mph - N/A   Overcast
1:15 PM 66.2 °F 60.8 °F 83% 29.98 in 10.0 mi SW 10.4 mph - N/A   Overcast
1:35 PM 66.2 °F 60.8 °F 83% 29.96 in 10.0 mi South 9.2 mph - N/A   Overcast
1:55 PM 66.2 °F 60.8 °F 83% 29.95 in 10.0 mi SSW 10.4 mph - N/A   Overcast
2:15 PM 66.2 °F 60.8 °F 83% 29.95 in 10.0 mi South 6.9 mph - N/A   Overcast
2:35 PM 66.2 °F 60.8 °F 83% 29.94 in 10.0 mi SSW 8.1 mph - N/A   Overcast
2:55 PM 66.2 °F 59.0 °F 78% 29.94 in 10.0 mi SSW 9.2 mph - N/A   Overcast
3:15 PM 66.2 °F 60.8 °F 83% 29.94 in 9.0 mi SW 11.5 mph - N/A   Overcast
3:35 PM 64.4 °F 60.8 °F 88% 29.93 in 10.0 mi SW 6.9 mph - N/A   Overcast
3:55 PM 64.4 °F 60.8 °F 88% 29.92 in 10.0 mi SSW 9.2 mph - N/A   Overcast
4:15 PM 64.4 °F 60.8 °F 88% 29.93 in 10.0 mi SSW 6.9 mph - N/A   Overcast
4:35 PM 66.2 °F 60.8 °F 83% 29.93 in 10.0 mi SSW 9.2 mph - N/A   Mostly Cloudy
4:55 PM 66.2 °F 60.8 °F 83% 29.93 in 10.0 mi SW 9.2 mph - N/A   Clear
5:15 PM 66.2 °F 60.8 °F 83% 29.93 in 10.0 mi SSW 9.2 mph - N/A   Clear
5:35 PM 66.2 °F 60.8 °F 83% 29.94 in 10.0 mi WSW 5.8 mph - N/A   Clear
5:55 PM 64.4 °F 60.8 °F 88% 29.93 in 10.0 mi SW 6.9 mph - N/A   Scattered Clouds
6:15 PM 64.4 °F 60.8 °F 88% 29.94 in 10.0 mi WSW 5.8 mph - N/A   Mostly Cloudy
6:35 PM 64.4 °F 60.8 °F 88% 29.93 in 10.0 mi WSW 8.1 mph - N/A   Mostly Cloudy
6:55 PM 64.4 °F 60.8 °F 88% 29.94 in 10.0 mi WSW 6.9 mph - N/A   Mostly Cloudy
7:15 PM 64.4 °F 60.8 °F 88% 29.94 in 10.0 mi SW 8.1 mph - N/A   Partly Cloudy
7:35 PM 64.4 °F 62.6 °F 94% 29.93 in 10.0 mi SW 8.1 mph - N/A   Clear
7:55 PM 64.4 °F 62.6 °F 94% 29.93 in 10.0 mi SW 5.8 mph - N/A   Clear
8:15 PM 64.4 °F 62.6 °F 94% 29.93 in 10.0 mi WSW 5.8 mph - N/A   Clear
8:35 PM 64.4 °F 62.6 °F 94% 29.93 in 10.0 mi West 6.9 mph - N/A   Clear
8:55 PM 64.4 °F 62.6 °F 94% 29.93 in 10.0 mi West 5.8 mph - N/A   Clear
9:15 PM 64.4 °F 62.6 °F 94% 29.94 in 10.0 mi West 6.9 mph - N/A   Clear
9:35 PM 64.4 °F 62.6 °F 94% 29.94 in 10.0 mi West 9.2 mph - N/A   Clear
9:55 PM 66.2 °F 62.6 °F 88% 29.94 in 10.0 mi West 8.1 mph - N/A   Scattered Clouds
10:15 PM 66.2 °F 62.6 °F 88% 29.95 in 10.0 mi West 13.8 mph 17.3 mph N/A   Scattered Clouds
10:35 PM 66.2 °F 60.8 °F 83% 29.95 in 10.0 mi West 9.2 mph - N/A   Partly Cloudy
10:55 PM 66.2 °F 60.8 °F 83% 29.95 in 10.0 mi WNW 8.1 mph - N/A   Clear
11:15 PM 66.2 °F 60.8 °F 83% 29.94 in 10.0 mi West 6.9 mph - N/A   Clear
11:35 PM 64.4 °F 62.6 °F 94% 29.94 in 10.0 mi West 8.1 mph - N/A   Clear
11:55 PM 66.2 °F 62.6 °F 88% 29.94 in 10.0 mi WNW 8.1 mph - N/A   Scattered Clouds